Change the Weather History Date:

Friday, December 16, 2011

  Actual Average Record
Temperature  
Mean Temperature 41 °F -  
Max Temperature 50 °F 58 °F 82 °F (2006)
Min Temperature 32 °F 25 °F 6 °F (1972)
Degree Days  
Heating Degree Days 24    
Moisture  
Dew Point 31 °F    
Average Humidity 69    
Maximum Humidity 89    
Minimum Humidity 50    
Precipitation  
Precipitation 0.00 in - - ()
Sea Level Pressure  
Sea Level Pressure 30.34 in    
Wind  
Wind Speed 5 mph (NNE)    
Max Wind Speed 7 mph    
Max Gust Speed -    
Visibility 10 miles    
Events      
Averages and records for this station are not official NWS values.
T = Trace of Precipitation, MM = Missing Value Source: NWS Daily Summary

Daily Weather History Graph

Daily Weather History Graph

Search for Another Location

Airport or City:

Trip Planner

Search our weather history database for the weather conditions in past years. The results will help you decide how hot, cold, wet, or windy it might be!

Date:

Astronomy

Dec. 16, 2011 Rise Set
Actual Time 7:45 AM CST 5:50 PM CST
Civil Twilight 7:18 AM CST 6:17 PM CST
Nautical Twilight 6:48 AM CST 6:48 PM CST
Astronomical Twilight 6:18 AM CST 7:18 PM CST
Moon No Moon Rise 11:51 AM CST (12/16)
Length of Visible Light 10h 59m
Length of Day
10h 05m
Waning Gibbous, 64% of the Moon is Illuminated
Dec 16
Waning Gibbous
Dec 17
Last Quarter
Dec 24
New
Jan 1
First Quarter
Jan 9
Full

Hourly Weather History & Observations

Time (CST) Temp. Windchill Dew Point Humidity Pressure Visibility Wind Dir Wind Speed Gust Speed Precip Events Conditions
12:53 AM 36.0 °F 31.1 °F 30.0 °F 79% 30.25 in 10.0 mi North 5.8 mph - N/A   Clear
1:53 AM 34.0 °F 28.0 °F 30.0 °F 85% 30.26 in 10.0 mi North 6.9 mph - N/A   Clear
2:53 AM 33.1 °F 26.9 °F 30.0 °F 89% 30.27 in 10.0 mi North 6.9 mph - N/A   Clear
3:53 AM 32.0 °F 25.6 °F 28.4 °F 87% 30.29 in 10.0 mi North 6.9 mph - N/A   Clear
4:18 AM 33.8 °F 27.7 °F 30.2 °F 87% 30.30 in 10.0 mi North 6.9 mph - N/A   Mostly Cloudy
4:42 AM 35.6 °F 30.7 °F 30.2 °F 81% 30.30 in 10.0 mi North 5.8 mph - N/A   Overcast
4:53 AM 36.0 °F 30.3 °F 30.9 °F 82% 30.27 in 10.0 mi North 6.9 mph - N/A   Overcast
5:18 AM 35.6 °F 30.7 °F 30.2 °F 81% 30.30 in 10.0 mi North 5.8 mph - N/A   Overcast
5:40 AM 35.6 °F 29.9 °F 30.2 °F 81% 30.29 in 10.0 mi NNE 6.9 mph - N/A   Overcast
5:53 AM 36.0 °F 32.1 °F 32.0 °F 86% 30.28 in 10.0 mi North 4.6 mph - N/A   Overcast
6:53 AM 35.1 °F 30.1 °F 30.9 °F 85% 30.31 in 10.0 mi NNW 5.8 mph - N/A   Overcast
7:53 AM 34.0 °F 28.8 °F 30.9 °F 89% 30.33 in 10.0 mi NNW 5.8 mph - N/A   Overcast
8:53 AM 36.0 °F 32.1 °F 30.9 °F 82% 30.36 in 10.0 mi North 4.6 mph - N/A   Overcast
9:17 AM 37.4 °F 33.8 °F 32.0 °F 81% 30.38 in 10.0 mi North 4.6 mph - N/A   Overcast
9:53 AM 39.9 °F 35.1 °F 28.9 °F 65% 30.37 in 10.0 mi ENE 6.9 mph - N/A   Overcast
10:13 AM 41.0 °F 37.1 °F 28.4 °F 61% 30.39 in 10.0 mi East 5.8 mph - N/A   Overcast
10:53 AM 42.1 °F 38.4 °F 30.0 °F 62% 30.38 in 10.0 mi East 5.8 mph - N/A   Overcast
11:53 AM 43.0 °F 41.3 °F 30.0 °F 60% 30.38 in 10.0 mi East 3.5 mph - N/A   Overcast
12:17 PM 44.6 °F 43.1 °F 30.2 °F 57% 30.39 in 10.0 mi ENE 3.5 mph - N/A   Overcast
12:53 PM 45.0 °F - 30.0 °F 56% 30.37 in 10.0 mi Calm Calm - N/A   Overcast
1:53 PM 48.0 °F - 30.9 °F 52% 30.34 in 10.0 mi North 3.5 mph - N/A   Overcast
2:53 PM 50.0 °F - 32.0 °F 50% 30.32 in 10.0 mi Calm Calm - N/A   Mostly Cloudy
3:53 PM 50.0 °F - 32.0 °F 50% 30.33 in 10.0 mi North 3.5 mph - N/A   Clear
4:53 PM 50.0 °F - 33.1 °F 52% 30.32 in 10.0 mi East 3.5 mph - N/A   Overcast
5:53 PM 50.0 °F - 33.1 °F 52% 30.34 in 10.0 mi NNE 3.5 mph - N/A   Overcast
6:53 PM 48.9 °F - 34.0 °F 56% 30.37 in 10.0 mi Calm Calm - N/A   Overcast
7:53 PM 48.9 °F - 30.9 °F 50% 30.39 in 10.0 mi East 4.6 mph - N/A   Overcast
8:53 PM 46.4 °F 44.3 °F 30.2 °F 53% 30.41 in 10.0 mi East 4.6 mph - N/A   Overcast
9:53 PM 45.0 °F - 30.0 °F 56% 30.40 in 10.0 mi Calm Calm - N/A   Overcast
10:53 PM 43.0 °F - 30.0 °F 60% 30.42 in 10.0 mi Calm Calm - N/A   Mostly Cloudy
11:53 PM 42.1 °F - 30.9 °F 65% 30.42 in 10.0 mi Calm Calm - N/A   Overcast